Hourly Weather Rusinovo

Today, 14 April, Wednesday

Time Temperature Precipitation Wind Pressure Humidity
00:00 +6°C° 0 mm 4 mps 755 mmHg 94%
01:00 +6°C° 0 mm 4 mps 755 mmHg 94%
02:00 +7°C° 0 mm 3 mps 755 mmHg 94%
03:00 +7°C° 0 mm 3 mps 756 mmHg 95%
04:00 +6°C° 0 mm 2 mps 756 mmHg 97%
05:00 +6°C° 0 mm 2 mps 756 mmHg 98%
06:00 +6°C° 0 mm 2 mps 755 mmHg 98%
07:00 +6°C° 0 mm 2 mps 755 mmHg 98%
08:00 +6°C° 0.1 mm 2 mps 755 mmHg 98%
09:00 +5°C° 0.1 mm 3 mps 755 mmHg 98%
10:00 +7°C° 0 mm 3 mps 755 mmHg 98%
11:00 +7°C° 0 mm 3 mps 755 mmHg 96%
12:00 +7°C° 0 mm 4 mps 755 mmHg 95%
13:00 +8°C° 0 mm 4 mps 755 mmHg 93%
14:00 +10°C° 0 mm 4 mps 754 mmHg 91%
15:00 +11°C° 0 mm 4 mps 754 mmHg 90%
16:00 +12°C° 0 mm 4 mps 753 mmHg 88%
17:00 +11°C° 0 mm 4 mps 753 mmHg 87%
18:00 +11°C° 0 mm 4 mps 752 mmHg 85%
19:00 +11°C° 0 mm 4 mps 752 mmHg 84%
20:00 +11°C° 0 mm 4 mps 752 mmHg 84%
21:00 +10°C° 0 mm 4 mps 751 mmHg 84%
22:00 +10°C° 0 mm 4 mps 751 mmHg 84%
23:00 +8°C° 0 mm 4 mps 751 mmHg 84%

Tomorrow, 15 April, Thursday

Time Temperature Precipitation Wind Pressure Humidity
00:00 +7°C° 0 mm 4 mps 750 mmHg 83%
01:00 +7°C° 0 mm 5 mps 750 mmHg 83%
02:00 +6°C° 0 mm 5 mps 750 mmHg 83%
03:00 +6°C° 0 mm 5 mps 749 mmHg 83%
04:00 +6°C° 0 mm 5 mps 749 mmHg 82%
05:00 +6°C° 0 mm 4 mps 749 mmHg 83%
06:00 +6°C° 0 mm 4 mps 749 mmHg 84%
07:00 +6°C° 0 mm 4 mps 748 mmHg 84%
08:00 +6°C° 0 mm 4 mps 749 mmHg 87%
09:00 +6°C° 0 mm 4 mps 749 mmHg 89%
10:00 +6°C° 0 mm 4 mps 749 mmHg 91%
11:00 +5°C° 0.2 mm 3 mps 750 mmHg 92%
12:00 +3°C° 0.2 mm 3 mps 750 mmHg 93%
13:00 +3°C° 0.2 mm 2 mps 751 mmHg 94%
14:00 +4°C° 0.3 mm 2 mps 751 mmHg 89%
15:00 +4°C° 0.3 mm 2 mps 751 mmHg 83%
16:00 +5°C° 0.3 mm 2 mps 752 mmHg 78%
17:00 +5°C° 0 mm 2 mps 752 mmHg 73%
18:00 +4°C° 0 mm 2 mps 752 mmHg 68%
19:00 +3°C° 0 mm 3 mps 753 mmHg 64%
20:00 +3°C° 0 mm 2 mps 753 mmHg 68%
21:00 +2°C° 0 mm 2 mps 754 mmHg 72%
22:00 +1°C° 0 mm 2 mps 754 mmHg 77%
23:00 +1°C° 0 mm 2 mps 755 mmHg 77%

Day after tomorrow, 16 April, Friday

Time Temperature Precipitation Wind Pressure Humidity
00:00 -1°C° 0 mm 2 mps 755 mmHg 77%
01:00 -1°C° 0 mm 2 mps 755 mmHg 77%
02:00 -2°C° 0 mm 2 mps 756 mmHg 80%
03:00 -2°C° 0 mm 2 mps 756 mmHg 83%
04:00 0°C° 0 mm 1 mps 757 mmHg 86%
05:00 0°C° 0 mm 1 mps 757 mmHg 82%
06:00 0°C° 0 mm 1 mps 758 mmHg 78%
07:00 -1°C° 0 mm 2 mps 758 mmHg 73%
08:00 +2°C° 0 mm 1 mps 758 mmHg 66%
09:00 +2°C° 0 mm 1 mps 758 mmHg 59%
10:00 +3°C° 0 mm 1 mps 759 mmHg 51%
11:00 +4°C° 0 mm 1 mps 758 mmHg 49%
12:00 +4°C° 0 mm 2 mps 758 mmHg 46%
13:00 +5°C° 0 mm 2 mps 758 mmHg 43%
14:00 +5°C° 0 mm 2 mps 757 mmHg 44%
15:00 +4°C° 0 mm 3 mps 757 mmHg 44%
16:00 +4°C° 0 mm 3 mps 757 mmHg 45%
17:00 +4°C° 0 mm 3 mps 756 mmHg 51%
18:00 +3°C° 0 mm 3 mps 756 mmHg 57%
19:00 +2°C° 0 mm 3 mps 755 mmHg 63%
20:00 +2°C° 0 mm 3 mps 755 mmHg 67%
21:00 +2°C° 0 mm 3 mps 755 mmHg 71%
22:00 +1°C° 0 mm 3 mps 755 mmHg 75%
23:00 +1°C° 0 mm 3 mps 754 mmHg 78%

17 April, Saturday

Time Temperature Precipitation Wind Pressure Humidity
00:00 +1°C° 0 mm 3 mps 754 mmHg 81%
01:00 0°C° 0 mm 3 mps 754 mmHg 84%
02:00 0°C° 0 mm 3 mps 754 mmHg 84%
03:00 -1°C° 0 mm 3 mps 754 mmHg 84%
04:00 -1°C° 0 mm 3 mps 755 mmHg 84%
05:00 -1°C° 0 mm 3 mps 755 mmHg 81%
06:00 -1°C° 0 mm 3 mps 755 mmHg 78%
07:00 -1°C° 0 mm 3 mps 755 mmHg 75%
08:00 0°C° 0 mm 3 mps 754 mmHg 71%
09:00 +2°C° 0 mm 2 mps 754 mmHg 67%
10:00 +3°C° 0 mm 2 mps 754 mmHg 63%
11:00 +2°C° 0.2 mm 3 mps 753 mmHg 68%
12:00 +2°C° 0.2 mm 3 mps 753 mmHg 73%
13:00 +3°C° 0.2 mm 4 mps 753 mmHg 78%
14:00 +3°C° 0.2 mm 4 mps 752 mmHg 74%
15:00 +2°C° 0.2 mm 5 mps 752 mmHg 69%
16:00 +3°C° 0.2 mm 5 mps 752 mmHg 65%
17:00 +2°C° 0.1 mm 5 mps 751 mmHg 66%
18:00 +1°C° 0.1 mm 5 mps 751 mmHg 66%
19:00 0°C° 0.1 mm 4 mps 751 mmHg 67%
20:00 0°C° 0.4 mm 4 mps 751 mmHg 76%
21:00 -1°C° 0.4 mm 4 mps 751 mmHg 84%
22:00 0°C° 0.4 mm 3 mps 750 mmHg 93%
23:00 -1°C° 0.1 mm 3 mps 751 mmHg 86%

18 April, Sunday

Time Temperature Precipitation Wind Pressure Humidity
00:00 -3°C° 0.1 mm 4 mps 751 mmHg 79%
01:00 -4°C° 0.1 mm 4 mps 752 mmHg 72%
02:00 -5°C° 0 mm 4 mps 753 mmHg 72%
03:00 -5°C° 0 mm 4 mps 753 mmHg 71%
04:00 -7°C° 0 mm 4 mps 754 mmHg 71%
05:00 -7°C° 0 mm 4 mps 755 mmHg 70%
06:00 -7°C° 0 mm 4 mps 755 mmHg 69%
07:00 -5°C° 0 mm 4 mps 756 mmHg 69%
08:00 -5°C° 0 mm 4 mps 757 mmHg 62%
09:00 -4°C° 0 mm 4 mps 757 mmHg 56%
10:00 -2°C° 0 mm 3 mps 758 mmHg 49%
11:00 -2°C° 0 mm 3 mps 759 mmHg 47%
12:00 -1°C° 0 mm 3 mps 759 mmHg 45%
13:00 -1°C° 0 mm 3 mps 760 mmHg 43%
14:00 -1°C° 0 mm 3 mps 760 mmHg 42%
15:00 0°C° 0 mm 3 mps 760 mmHg 41%
16:00 0°C° 0 mm 3 mps 761 mmHg 40%
17:00 -1°C° 0 mm 2 mps 761 mmHg 45%
18:00 -2°C° 0 mm 2 mps 761 mmHg 51%
19:00 0°C° 0 mm 1 mps 761 mmHg 57%
20:00 -1°C° 0 mm 1 mps 762 mmHg 61%
21:00 -2°C° 0 mm 1 mps 762 mmHg 66%
22:00 -2°C° 0 mm 1 mps 762 mmHg 70%
23:00 -3°C° 0 mm 1 mps 763 mmHg 71%

19 April, Monday

Time Temperature Precipitation Wind Pressure Humidity
00:00 -3°C° 0 mm 1 mps 763 mmHg 73%
01:00 -3°C° 0 mm 1 mps 763 mmHg 74%
02:00 -3°C° 0 mm 1 mps 763 mmHg 74%
03:00 -3°C° 0 mm 1 mps 764 mmHg 75%
04:00 -3°C° 0 mm 1 mps 764 mmHg 76%
05:00 -3°C° 0 mm 1 mps 764 mmHg 69%
06:00 -2°C° 0 mm 1 mps 764 mmHg 63%
07:00 -1°C° 0 mm 1 mps 764 mmHg 57%
08:00 0°C° 0 mm 1 mps 764 mmHg 50%
09:00 +1°C° 0 mm 1 mps 764 mmHg 44%
10:00 +2°C° 0 mm 1 mps 764 mmHg 38%
11:00 +1°C° 0 mm 2 mps 764 mmHg 36%
12:00 +2°C° 0 mm 2 mps 764 mmHg 34%
13:00 +3°C° 0 mm 2 mps 763 mmHg 32%
14:00 +3°C° 0 mm 2 mps 763 mmHg 33%
15:00 +3°C° 0 mm 2 mps 763 mmHg 33%
16:00 +4°C° 0 mm 2 mps 763 mmHg 34%
17:00 +4°C° 0 mm 1 mps 762 mmHg 40%
18:00 +3°C° 0 mm 1 mps 762 mmHg 46%
19:00 +1°C° 0 mm 0 mps 762 mmHg 53%
20:00 0°C° 0 mm 0 mps 762 mmHg 56%
21:00 0°C° 0 mm 1 mps 762 mmHg 59%
22:00 -1°C° 0 mm 1 mps 762 mmHg 63%
23:00 -1°C° 0 mm 1 mps 762 mmHg 64%
Show more